DW1065 Weather Reports


Display with metric or nautical units.
time (UTC)temp
F
wind
direction
speed
MPH
gust
MPH
rain 1hr
in
rain 24hr
in
rain mn
in
humidity
%
barometer
mb
20260504220505 43 301 1.0 5.0 1.40 3.37 0.12 65 1001.6
20260504220006 43 339 1.0 5.0 1.40 3.37 0.00 65 1001.5
20260504215505 43 4 1.0 3.0 1.40 3.37 3.36 65 1001.5
20260504215005 44 290 2.0 3.0 1.40 3.36 3.34 64 1001.4
20260504213005 45 14 2.0 6.0 1.40 3.37 3.30 62 1001.2
20260504212505 45 20 1.0 6.0 1.40 3.37 3.29 63 1001.1
20260504212005 45 24 2.0 5.0 1.40 3.37 3.27 63 1001.1
20260504211005 46 347 2.0 5.0 1.42 3.37 3.25 62 1000.9
20260504210505 46 342 2.0 5.0 1.42 3.37 3.24 62 1000.9
20260504210006 46 306 2.0 6.0 1.40 3.37 3.23 61 1000.7
20260504205505 47 317 2.0 7.0 1.40 3.37 3.22 61 1000.7
20260504205005 47 283 3.0 7.0 1.40 3.37 3.20 61 1000.6
20260504204005 47 281 3.0 7.0 1.40 3.36 3.18 62 1000.3
20260504203505 47 347 2.0 7.0 1.42 3.37 3.17 63 1000.4
20260504203006 48 292 2.0 6.0 1.42 3.37 3.16 65 1000.4
20260504202504 48 294 2.0 7.0 1.40 3.37 3.15 65 1000.4
20260504202005 49 337 3.0 12.0 1.40 3.37 3.13 65 1000.4
20260504201005 50 297 7.0 14.0 1.40 3.36 3.11 61 1000.2
20260504200505 50 291 3.0 9.0 1.40 3.36 3.10 60 999.8
20260504200004 51 293 4.0 9.0 1.42 3.37 3.09 59 999.7
20260504195505 51 283 3.0 8.0 1.40 3.37 3.08 59 999.6
20260504195005 51 269 2.0 9.0 1.40 3.37 3.06 59 999.5
20260504194505 51 243 2.0 12.0 1.40 3.37 3.05 58 999.5
20260504194005 52 257 4.0 12.0 1.40 3.37 3.04 57 999.4
20260504193504 52 314 3.0 10.0 1.40 3.36 3.03 57 999.3
20260504192504 52 265 3.0 10.0 1.42 3.37 3.01 56 999.2
20260504192005 52 234 2.0 10.0 1.40 3.37 2.99 55 999.1
20260504191504 53 238 3.0 12.0 1.40 3.37 2.98 55 999.1
20260504190504 53 265 3.0 12.0 1.40 3.37 2.96 54 998.9
20260504190007 53 256 3.0 12.0 1.40 3.36 2.95 54 999.0
20260504185005 53 258 3.0 10.0 1.42 3.37 2.92 53 999.0
20260504184505 53 262 2.0 8.0 1.40 3.37 2.91 52 999.2
20260504184004 54 277 3.0 17.0 1.40 3.37 2.90 50 999.2
20260504183504 54 302 3.0 17.0 1.40 3.37 2.89 50 999.1
20260504183005 54 274 3.0 12.0 1.40 3.37 2.88 49 999.1
20260504182505 54 279 2.0 12.0 1.40 3.36 2.86 48 999.1
20260504182005 55 290 3.0 12.0 1.42 3.37 2.85 48 999.0
20260504181505 55 255 2.0 8.0 1.42 3.37 2.84 47 998.9
20260504181005 55 272 2.0 9.0 1.40 3.37 2.83 47 998.9
20260504180005 55 258 4.0 12.0 1.40 3.37 2.81 46 998.8
20260504175505 56 254 2.0 12.0 1.40 3.37 2.79 47 998.7
20260504175005 56 256 4.0 12.0 1.40 3.36 2.78 46 998.8
20260504174506 56 306 3.0 12.0 1.42 3.37 2.77 46 998.8
20260504174005 56 272 3.0 12.0 1.40 3.37 2.76 45 998.8
20260504173505 56 266 2.0 9.0 1.40 3.37 2.75 46 998.9
20260504173005 57 267 3.0 9.0 1.40 3.37 2.74 44 998.8
20260504172505 57 249 2.0 9.0 1.40 3.37 2.72 44 998.8
20260504172005 57 278 5.0 13.0 1.40 3.37 2.71 43 998.8
20260504171506 57 291 3.0 13.0 1.40 3.36 2.70 43 998.7
20260504170505 58 261 3.0 12.0 1.42 3.37 2.68 42 998.6
20260504151006 58 201 5.0 17.0 1.40 3.37 2.41 48 999.2
20260504150504 58 245 4.0 16.0 1.40 3.37 2.40 48 999.2
20260504141005 61 217 6.0 14.0 1.40 3.37 2.27 35 999.6
20260504140505 62 226 6.0 16.0 1.40 3.37 2.26 33 999.6
20260504130504 62 277 2.0 5.0 1.40 3.37 2.12 31 999.8
20260504110504 59 296 4.0 12.0 1.40 3.37 1.83 33 1000.2
20260504082004 55 304 3.0 10.0 1.40 3.37 1.45 52 1000.0
20260504081505 55 263 3.0 10.0 1.40 3.37 1.44 52 1000.0
20260504081006 54 356 2.0 7.0 1.40 3.36 1.42 55 1000.0
20260504080504 54 278 2.0 5.0 1.42 3.37 1.41 58 1000.0
20260504050504 47 228 0.0 3.0 1.40 3.37 9.96 92 999.5
20260504045505 47 222 1.0 3.0 1.40 3.37 9.72 92 999.5
20260504045005 47 203 1.0 3.0 1.40 3.37 9.60 92 999.5
20260504044505 47 219 2.0 3.0 1.40 3.36 9.48 92 999.5
20260504044004 46 219 1.0 3.0 1.42 3.37 9.38 92 999.5
20260504043504 46 206 1.0 5.0 1.42 3.37 9.26 92 999.4
20260504043005 46 207 2.0 5.0 1.40 3.37 9.14 92 999.5
20260504041504 47 223 1.0 3.0 1.40 3.37 8.78 91 999.7
20260504041005 47 220 1.0 3.0 1.40 3.36 8.66 91 999.8
20260504040504 47 218 2.0 3.0 1.42 3.37 8.56 91 999.7
20260504040004 47 221 1.0 3.0 1.42 3.37 8.44 91 999.8
20260504035504 47 222 2.0 3.0 1.40 3.37 8.32 91 999.8
20260504035005 47 243 1.0 3.0 1.40 3.37 8.20 91 999.8
20260504034504 47 244 2.0 3.0 1.40 3.37 8.08 91 999.8
20260504034004 47 198 1.0 3.0 1.40 3.37 7.96 91 999.9
20260504033504 47 216 1.0 3.0 1.40 3.36 7.84 91 999.9
20260504033005 47 212 2.0 3.0 1.42 3.37 7.74 91 999.9
20260504032004 47 238 0.0 3.0 1.40 3.37 7.50 91 1000.0
20260504031505 47 206 1.0 3.0 1.40 3.37 7.38 91 1000.0
20260504030504 47 204 0.0 3.0 1.40 3.37 7.14 91 1000.0
20260504030005 47 207 1.0 3.0 1.40 3.36 7.02 91 1000.1
20260504025005 47 170 2.0 6.0 1.42 3.37 6.80 91 1000.0
20260504024504 47 230 2.0 3.0 1.40 3.37 6.68 91 1000.2
20260504024005 47 204 2.0 3.0 1.40 3.37 6.56 91 1000.2
20260504023504 47 207 2.0 3.0 1.40 3.37 6.44 91 1000.3
20260504022005 47 207 1.0 3.0 1.42 3.37 6.10 91 1000.3
20260504021505 47 211 1.0 3.0 1.40 3.37 5.98 91 1000.3
20260504020505 47 205 1.0 3.0 1.40 3.37 5.74 91 1000.4
20260504020005 47 211 1.0 3.0 1.40 3.37 5.62 91 1000.5
20260504015505 47 216 1.0 3.0 1.40 3.36 5.50 91 1000.5
20260504014506 47 206 1.0 3.0 1.42 3.37 5.28 91 1000.5
20260504014006 47 209 1.0 3.0 1.40 3.37 5.16 91 1000.4
20260504013504 47 211 1.0 3.0 1.40 3.37 5.04 90 1000.4
20260504012504 47 214 2.0 3.0 1.40 3.37 4.80 90 1000.6
20260504012005 47 213 2.0 3.0 1.40 3.36 4.68 90 1000.6
20260504011504 47 191 1.0 3.0 1.42 3.37 4.58 91 1000.6
20260504011005 47 166 1.0 6.0 1.42 3.37 4.46 90 1000.6
20260504010505 47 190 1.0 6.0 1.40 3.37 4.34 90 1000.6
20260504010004 47 165 3.0 6.0 1.40 3.37 4.22 90 1000.6
20260504005504 47 161 2.0 5.0 1.40 3.37 4.10 90 1000.7
20260504005006 47 200 1.0 5.0 1.40 3.37 3.98 90 1000.8
20260504004504 47 168 1.0 5.0 1.40 3.36 3.86 90 1000.9
20260504004004 47 195 1.0 3.0 1.42 3.37 3.76 90 1001.0
20260504003504 47 189 1.0 3.0 1.42 3.37 3.64 90 1001.0
20260504003004 47 193 1.0 3.0 1.40 3.37 3.52 90 1001.1
20260504002504 47 193 1.0 5.0 1.40 3.37 3.40 90 1001.1
20260504002004 47 185 0.0 8.0 1.40 3.37 3.28 90 1001.2
20260504001504 47 154 2.0 8.0 1.40 3.37 3.16 90 1001.2
20260504001004 47 168 4.0 8.0 1.40 3.36 3.04 90 1001.3
20260504000504 47 176 1.0 5.0 1.42 3.37 2.94 90 1001.2
20260504000004 47 200 2.0 3.0 1.42 3.37 2.82 90 1001.2
20260503235504 47 192 1.0 3.0 1.40 3.37 2.70 91 1001.3
20260503235006 47 200 2.0 5.0 1.40 3.37 2.58 91 1001.5
20260503234506 47 174 2.0 5.0 1.40 3.37 2.46 91 1001.5
20260503233505 48 152 2.0 8.0 1.40 3.36 2.22 92 1001.7
20260503233004 48 189 3.0 8.0 1.42 3.37 2.12 92 1001.8
20260503232504 48 194 2.0 3.0 1.40 3.37 2.00 92 1001.9
20260503232004 48 207 1.0 5.0 1.40 3.37 1.88 92 1002.0
20260503231505 48 197 2.0 5.0 1.40 3.37 1.76 92 1002.1
20260503231005 48 218 1.0 3.0 1.40 3.37 1.64 92 1002.2
20260503230004 48 194 2.0 7.0 1.40 3.36 1.40 92 1002.2
20260503225504 48 184 2.0 7.0 1.42 3.37 1.30 92 1002.2
20260503225004 48 185 2.0 3.0 1.42 3.37 1.18 92 1002.2
20260503224504 48 206 1.0 5.0 1.40 3.37 1.06 92 1002.2
20260503224004 48 190 2.0 5.0 1.40 3.37 0.94 91 1002.2
20260503223505 48 211 1.0 3.0 1.40 3.37 0.82 91 1002.2
20260503223005 48 215 1.0 5.0 1.40 3.36 0.70 91 1002.3
20260503222504 48 151 2.0 5.0 1.42 3.37 0.60 91 1002.3
20260503222004 48 163 2.0 6.0 1.42 3.37 0.48 91 1002.3
20260503221504 48 163 2.0 6.0 1.42 3.37 0.36 91 1002.2
20260503221005 48 164 1.0 5.0 1.40 3.37 0.24 91 1002.2